Location: LDNL
(36.4545°S, 141.6685°E)
Time: 17:53:12
(UTC+10:00)

Tiros 1 despin weight - Pass Details

Date: 24 January 2022
Orbit: 592 x 639 km, 48.2° (Epoch: 28 May)

Event Time Altitude Azimuth Distance (km) Brightness Sun altitude
Exits shadow 05:21:33 11° 357° (N) 1,912 ? -14.4°
Maximum altitude 05:24:55 23° 47° (NE) 1,317 ? -13.9°
Drops below altitude 10° 05:28:31 10° 99° (E) 1,979 ? -13.3°
Sets 05:31:10 0° 113° (ESE) 2,881 ? -12.9°
